Weather History for Phuket, Thailand

Change the Weather History Date:

Thursday, June 14, 2012

  Actual Average Record
Temperature  
Mean Temperature 80 °F -  
Max Temperature 88 °F 88 °F 96 °F (1997)
Min Temperature 73 °F 77 °F 73 °F (1999)
Cooling Degree Days 16    
Growing Degree Days 30 (Base 50)    
Moisture  
Dew Point 74 °F    
Average Humidity 74    
Maximum Humidity 100    
Minimum Humidity 58    
Precipitation  
Precipitation 0.00 in 0.37 in - ()
Sea Level Pressure  
Sea Level Pressure 29.84 in    
Wind  
Wind Speed 6 mph ()    
Max Wind Speed 17 mph    
Max Gust Speed -    
Visibility 5.8 miles    
Events      
Averages and records for this station are not official NWS values.
T = Trace of Precipitation, MM = Missing Value Source: Averaged Metar Reports

Daily Weather History Graph

Daily Weather History Graph

Search for Another Location

Airport:

Trip Planner

Search our weather history database for the weather conditions in past years. The results will help you decide how hot, cold, wet, or windy it might be!

Date:

Astronomy

Jun. 14, 2012 Rise Set
Actual Time 6:09 AM ICT 6:44 PM ICT
Civil Twilight 5:46 AM ICT 7:07 PM ICT
Nautical Twilight 5:19 AM ICT 7:34 PM ICT
Astronomical Twilight 4:52 AM ICT 8:01 PM ICT
Moon 1:56 AM ICT (6/14) 2:31 PM ICT (6/14)
Length of Visible Light 13h 21m
Length of Day
12h 35m
Waning Crescent, 25% of the Moon is Illuminated
Jun 14
Waning Crescent
Jun 19
New
Jun 27
First Quarter
Jul 4
Full
Jul 11
Last Quarter

Hourly Weather History & Observations

Time (ICT) Temp. Heat Index Dew Point Humidity Pressure Visibility Wind Dir Wind Speed Gust Speed Precip Events Conditions
12:00 AM - - - N/A% 29.86 in 5.0 mi Calm Calm - N/A   Mostly Cloudy
1:00 AM 75 °F - 73 °F 92% 29.81 in 6 mi Calm Calm - -   Mist
1:00 AM 75.2 °F - 75.2 °F 100% 29.83 in 5.0 mi Calm Calm - N/A   Partly Cloudy
3:00 AM 75.2 °F - 75.2 °F 100% 29.83 in 5.0 mi East 3.5 mph - N/A   Mostly Cloudy
4:00 AM 75.2 °F - 75.2 °F 100% 29.80 in 5.0 mi East 3.5 mph - N/A   Mostly Cloudy
5:30 AM 75.2 °F - 75.2 °F 100% 29.83 in 5.0 mi East 3.5 mph - N/A   Mostly Cloudy
6:00 AM - - 75.2 °F N/A% 29.83 in 5.0 mi East 4.6 mph - N/A   Mostly Cloudy
6:30 AM 75.2 °F - 75.2 °F 100% 29.83 in 5.0 mi East 3.5 mph - N/A   Mostly Cloudy
7:00 AM 75 °F - 73 °F 92% 29.81 in 5 mi Calm Calm - -   Mist
7:00 AM 77.0 °F - 75.2 °F 94% 29.83 in 5.0 mi ESE 2.3 mph - N/A   Mostly Cloudy
7:30 AM 80.6 °F 87.1 °F 77.0 °F 89% 29.86 in 5.0 mi Calm Calm - N/A   Mostly Cloudy
8:00 AM 84.2 °F 94.1 °F 77.0 °F 79% 29.86 in 5.0 mi Calm Calm - N/A   Mostly Cloudy
8:30 AM 84.2 °F 92.3 °F 75.2 °F 74% 29.89 in - North - - N/A   Mostly Cloudy
9:00 AM 86.0 °F 93.4 °F 73.4 °F 66% 29.89 in 5.6 mi WSW 10.4 mph - N/A   Mostly Cloudy
9:30 AM 86.0 °F 93.4 °F 73.4 °F 66% 29.89 in 5.6 mi WSW 11.5 mph - N/A   Mostly Cloudy
10:00 AM 86.0 °F 93.4 °F 73.4 °F 66% 29.89 in 6.2 mi West 13.8 mph - N/A   Mostly Cloudy
10:30 AM 86.0 °F 95.1 °F 75.2 °F 70% 29.89 in 6.2 mi West 12.7 mph - N/A   Mostly Cloudy
11:30 AM 86.0 °F 95.1 °F 75.2 °F 70% 29.89 in 6.2 mi West 11.5 mph - N/A   Mostly Cloudy
12:00 PM 86.0 °F 95.1 °F 75.2 °F 70% 29.86 in 6.2 mi WSW 11.5 mph - N/A   Mostly Cloudy
12:30 PM 87.8 °F 95.6 °F 73.4 °F 62% 29.86 in 6.2 mi West 15.0 mph - N/A   Mostly Cloudy
1:00 PM 88 °F - 77 °F 63% 29.83 in 6 mi West 6.9 mph - -   Scattered Clouds
1:00 PM 86.0 °F 95.1 °F 75.2 °F 70% 29.86 in 6.2 mi West 17.3 mph - N/A   Mostly Cloudy
1:30 PM 87.8 °F 97.6 °F 75.2 °F 66% 29.86 in 6.2 mi WSW 13.8 mph - N/A   Mostly Cloudy
2:00 PM 87.8 °F 97.6 °F 75.2 °F 66% 29.86 in 6.2 mi WSW 16.1 mph - N/A   Mostly Cloudy
2:30 PM 87.8 °F 97.6 °F 75.2 °F 66% 29.86 in 6.2 mi WSW 15.0 mph - N/A   Mostly Cloudy
3:00 PM 86.0 °F 95.1 °F 75.2 °F 70% 29.86 in 6.2 mi West 13.8 mph - N/A   Mostly Cloudy
3:30 PM 86.0 °F 95.1 °F 75.2 °F 70% 29.83 in 6.2 mi West 13.8 mph - N/A   Mostly Cloudy
4:00 PM 86.0 °F 93.4 °F 73.4 °F 66% 29.80 in 6.2 mi West 13.8 mph - N/A   Mostly Cloudy
4:30 PM 87.8 °F 93.8 °F 71.6 °F 58% 29.80 in 6.2 mi West 13.8 mph - N/A   Mostly Cloudy
5:30 PM 86.0 °F 91.8 °F 71.6 °F 62% 29.80 in 6.2 mi West 11.5 mph - N/A   Mostly Cloudy
6:00 PM 86.0 °F 91.8 °F 71.6 °F 62% 29.80 in 6.2 mi West 10.4 mph - N/A   Mostly Cloudy
6:30 PM 84.2 °F 89.6 °F 71.6 °F 66% 29.80 in 6.2 mi West 9.2 mph - N/A   Mostly Cloudy
7:00 PM 86 °F - 74 °F 60% 29.78 in 6 mi West 9.2 mph - -   Scattered Clouds
7:00 PM 82.4 °F 87.2 °F 71.6 °F 70% 29.83 in 6.2 mi West 6.9 mph - N/A   Mostly Cloudy
7:30 PM 84.2 °F 89.6 °F 71.6 °F 66% 29.83 in 6.2 mi West 9.2 mph - N/A   Mostly Cloudy
8:00 PM 84.2 °F 89.6 °F 71.6 °F 66% 29.83 in 6.2 mi WNW 15.0 mph - N/A   Mostly Cloudy
8:30 PM 82.4 °F 88.2 °F 73.4 °F 74% 29.86 in 6.2 mi West 8.1 mph - N/A   Mostly Cloudy
9:00 PM 82.4 °F 88.2 °F 73.4 °F 74% 29.86 in 6.2 mi West 6.9 mph - N/A   Mostly Cloudy
9:30 PM 82.4 °F 88.2 °F 73.4 °F 74% 29.86 in 6.2 mi West 5.8 mph - N/A   Mostly Cloudy
10:00 PM 82.4 °F 88.2 °F 73.4 °F 74% 29.86 in 6.2 mi West 4.6 mph - N/A   Mostly Cloudy
10:30 PM 82.4 °F 87.2 °F 71.6 °F 70% 29.86 in 6.2 mi WNW 6.9 mph - N/A   Mostly Cloudy
11:00 PM 82.4 °F 87.2 °F 71.6 °F 70% 29.86 in 6.2 mi West 5.8 mph - N/A   Mostly Cloudy
11:30 PM 80.6 °F 85.4 °F 73.4 °F 79% 29.86 in 6.2 mi West 5.8 mph - N/A   Mostly Cloudy